SCP
0 0 0 0 0 0 0 0 0 0 0 0 0 0 0 0 0 0 0 -0 -0 -0 -0 -0 -0 -0 -0 0 -0 0 0 0 0 0 0 -0 0 0 0 0 0 0 -0 0 0 0 0
0 0 0 0 0 0 0 0 0 0 0 0 0 0 0 0 0 0 0 0 0 0 0 -0 -0 -0 0 0 0 0 0 0 0 -0 0 0 0 0 0 0 0 -0 -0 0 0 0 0
0 0 0 0 0 0 0 0 0 0 0 0 0 0 0 0 0 0 0 0 0 0 0 -0 -0 -0 0 -0 0 0 0 0 0 0 0 0 0 0 0 0 -0 0 -0 0 -0 0 0
0 0 0 0 0 0 0 0 0 0 0 0 0 0 0 0 0 0 0 0 0 0 0 0 -0 -0 -0 0 0 0 0 0 0 0 0 0 0 0 0 0 0 0 -0 0 -0 0 0
0 0 0 0 0 0 0 0 0 0 0 0 0 0 0 0 0 0 0 0 0 0 0 -0 -0 0 -0 0 0 0 0 0 0 0 0 0 0 0 0 0 -0 -0 -0 0 -0 -0 0
0 0 0 0 0 0 0 0 0 0 0 0 0 0 0 0 0 0 0 0 0 0 -0 -0 0 0 0 0 0 0 0 0 0 0 0 0 0 0 0 0 0 -0 -0 -0 -0 -0 -0
0 0 0 0 0 0 0 0 0 0 0 0 0 0 0 0 0 0 0 0 0 0 -0 0 0 0 0 0 0 0 0 0 0 0 0 0 0 0 -0 0 -0 0 0 0 -0 0 0
0 0 0 0 0 0 0 0 0 0 0 0 0 0 0 0 0 0 0 0 0 0 0 0 0 0 0 0 0 0 0 0 0 -0 0 0 0 -0 0 0 0 0 0 0 0 0 0
0 0 0 0 0 0 0 0 0 0 0 0 0 0 0 0 -0 0 0 0 0 0 0 0 0 0 0 -0 0 0 0 0 -0 -0 -0 -0 -0 0 0 0 0 0 0 0 0 0 0
0 0 0 0 0 0 0 0 0 0 0 0 0 0 0 0 0 0 0 0 0 0 0 0 0 0 -0 -0 0 0 0 0 0 -0 0 0 -0 0 -0 -0 0 0 -0 -0 0 0 0
0 0 0 0 0 0 0 0 0 0 0 0 0 0 0 0 0 0 0 0 0 0 0 0 0 0 0 -0 0 -0 0 0 -0 0 0 -0 0 0 -0 0 0 0 -0 0 0 0 0
0 0 0 0 0 0 0 0 0 0 0 0 0 0 0 0 0 0 0 0 0 0 0 0 0 0 -0 0 0 0 0 0 0 -0 0 0 -0 0 0 0 0 0 0 0 0 0 0
0 0 0 0 0 0 0 0 0 0 0 0 0 0 0 0 0 0 0 0 0 0 0 0 0 0 -0 0 0 -0 -0 -0 -0 0 0 0 0 0 -0 0 0 0 0 0 0 0 0
0 0 0 0 0 0 0 0 0 0 0 0 0 0 0 0 0 0 0 0 0 0 0 -0 0 0 0 -0 -0 -0 0 -0 0 0 0 0 0 0 0 -0 -0 0 -0 0 0 0 0
0 0 0 0 0 0 0 0 0 0 0 0 -0 0 0 0 0 0 0 0 0 0 0 -0 0 -0 -0 -0 -0 -0 -0 -0 -0 0 0 0 0 0 0 0 0 0 0 0 0 0 0
0 0 0 0 0 0 0 0 0 0 0 0 0 0 0 0 0 0 0 0 0 0 0 0 -0 -0 -0 -0 -0 -0 -0 -0 0 -0 0 0 0 0 0 0 0 0 0 0 0 0 0
0 0 0 0 0 0 0 0 0 0 0 0 0 0 0 0 0 0 0 0 0 0 0 0 0 0 0 -0 -0 -0 0 0 0 0 0 0 0 0 0 0 0 0 0 0 0 0 0
0 0 0 0 0 0 0 0 0 0 0 0 0 0 0 0 0 0 0 0 0 0 0 0 0 0 0 0 0 0 0 0 0 0 0 0 0 0 0 0 0 0 0 0 0 0 0
0 0 0 0 0 0 0 0 0 0 0 0 0 0 0 0 0 0 0 0 0 0 0 0 0 0 0 0 0 0 0 0 0 0 0 0 0 0 0 0 0 0 0 0 0 0 0
0 0 0 0 0 0 0 0 0 0 0 0 0 0 0 0 0 -0 0 0 0 0 0 0 0 0 0 0 0 0 0 0 0 0 0 -0 0 0 0 0 0 0 0 0 0 0 0
0 0 0 0 0 0 0 0 0 0 0 0 0 0 0 0 0 0 0 0 0 0 0 0 0 0 0 0 0 0 0 0 0 0 0 0 0 0 0 0 0 0 0 0 0 0 0
0 0 0 0 0 0 0 0 0 0 0 0 0 0 0 0 0 0 0 0 0 0 0 0 0 0 0 0 0 0 0 0 0 0 0 0 0 0 0 0 0 0 0 0 0 0 0
0 0 0 0 0 0 0 0 0 0 0 0 0 0 0 0 0 0 0 0 0 0 0 0 0 0 0 0 0 0 0 0 0 0 0 0 0 0 0 0 0 0 0 0 0 0 0
0 0 0 0 0 0 0 0 0 0 0 0 0 0 0 0 0 0 0 0 0 0 0 0 0 0 0 -0 0 0 0 0 0 0 0 0 0 0 0 0 0 0 0 0 0 0 0
0 0 0 0 0 0 0 0 0 0 0 0 0 0 0 0 0 0 0 0 0 0 0 0 0 0 0 0 0 0 0 0 0 0 0 0 0 0 0 0 0 0 0 0 0 0 0
0 0 0 0 0 0 0 0 0 0 0 0 0 0 0 0 0 0 0 0 0 0 0 0 0 0 0 0 0 0 0 0 0 0 0 0 0 0 0 0 0 0 0 0 0 0 0
0 0 0 0 0 0 0 0 0 0 0 0 0 0 0 0 0 0 0 0 0 0 0 0 0 0 0 0 0 0 0 0 0 0 0 0 0 0 0 0 0 0 0 0 0 0 0
0 0 0 0 0 0 0 0 0 0 0 0 0 0 0 0 0 0 0 0 0 0 0 0 0 0 0 0 0 0 0 0 0 0 0 0 0 0 0 0 0 0 0 0 0 0 0
0 0 0 0 0 0 0 0 0 0 0 0 0 0 0 0 0 0 0 0 0 0 0 0 0 0 0 0 0 0 0 0 0 0 0 0 0 0 0 0 0 0 0 0 0 0 0
Wind_Speed_500mb
22 23 24 24 25 23 24 24 25 26 27 28 29 30 30 28 27 30 29 25 23 22 23 24 23 27 32 23 14 20 17 5 10 15 16 12 4 6 5 9 10 13 13 26 25 53 57
16 17 19 20 22 21 21 24 26 26 29 28 28 30 28 28 29 31 28 24 22 19 19 22 23 28 32 11 13 16 8 12 23 19 12 2 7 19 18 13 2 11 19 9 35 42 31
10 10 11 14 17 17 19 20 23 26 29 30 30 29 27 26 30 29 26 21 20 18 17 21 23 29 30 8 10 11 4 9 4 5 6 11 16 14 19 12 20 5 9 12 7 16 5
12 7 5 7 11 12 13 18 21 22 24 30 29 28 27 26 28 25 23 19 19 17 16 22 23 31 15 6 9 11 4 5 5 3 9 15 19 27 10 20 12 11 12 11 8 15 9
18 13 7 1 4 8 9 13 16 20 19 24 25 24 23 25 22 21 18 19 18 16 17 20 22 19 15 7 5 1 5 1 7 9 15 24 25 7 7 7 15 15 6 9 4 15 11
22 18 13 7 4 5 8 11 13 15 19 20 20 21 20 19 18 19 14 18 15 14 16 19 24 14 4 16 17 9 5 9 13 22 13 3 2 6 6 14 5 15 5 5 7 5 18
24 20 16 10 7 6 7 9 12 13 15 18 15 15 17 17 15 17 14 12 9 7 13 16 15 21 20 23 9 2 5 5 7 6 6 9 12 8 16 3 14 7 7 4 3 10 19
23 20 17 14 11 11 12 14 14 15 15 14 13 12 14 14 17 17 11 4 6 8 17 13 21 37 35 30 11 9 5 6 4 5 8 15 10 17 1 9 6 6 7 9 11 22 18
23 19 16 15 13 14 15 17 19 18 17 12 10 12 13 19 15 17 14 6 8 28 5 13 17 23 16 6 6 9 11 5 8 8 8 7 21 11 3 9 9 3 10 2 11 9 5
21 19 15 14 12 14 16 19 21 22 20 13 9 12 13 11 11 16 5 10 9 4 9 10 5 6 7 6 6 16 13 6 8 4 9 9 17 4 13 7 8 12 13 6 7 10 5
11 15 14 13 10 14 18 21 23 23 20 13 10 12 13 21 8 15 3 17 6 4 7 7 9 4 6 10 1 10 17 10 10 3 10 14 10 6 17 2 6 7 3 27 10 12 13
9 4 12 13 10 15 20 24 26 26 20 14 9 10 16 24 17 6 12 4 10 11 3 4 14 3 4 2 4 9 9 9 4 10 8 8 3 10 4 5 8 5 9 16 9 5 11
8 4 7 15 11 15 22 26 28 28 22 16 9 9 21 22 11 9 6 16 10 5 8 6 10 5 4 4 4 6 6 5 7 8 9 13 11 13 7 12 16 17 15 7 10 11 6
6 3 4 14 14 18 23 28 31 31 25 15 8 11 19 26 12 15 12 10 4 7 11 5 7 5 8 8 6 5 7 1 5 11 5 9 14 15 23 5 9 9 11 9 4 4 4
9 6 5 13 14 19 25 31 32 32 27 12 7 11 18 27 13 2 4 6 12 11 8 5 9 7 3 5 3 4 10 10 12 14 11 10 3 7 3 10 4 2 13 5 12 7 8
13 8 4 10 14 20 27 33 34 33 27 9 4 8 19 19 11 9 7 8 8 11 13 5 7 6 8 4 7 9 11 6 8 7 6 12 6 1 9 2 23 14 8 7 7 5 2
12 9 5 9 14 16 26 34 36 32 27 7 4 3 27 22 12 5 6 11 11 25 20 6 8 6 5 5 14 7 5 4 1 4 9 10 8 8 5 12 2 10 6 10 9 7 9
10 9 6 9 15 18 26 33 36 36 31 3 7 1 31 26 7 3 5 8 14 14 11 10 7 5 3 6 6 4 8 3 6 8 8 4 9 5 3 6 2 1 8 8 9 4 5
8 9 8 11 15 19 22 32 37 36 29 10 2 1 29 34 6 4 9 10 8 6 7 5 6 7 6 5 9 6 7 10 8 8 11 10 5 6 16 13 7 1 4 4 12 7 5
11 8 9 10 15 19 24 30 33 33 29 8 2 4 8 19 4 12 1 9 11 20 3 10 8 15 12 12 13 8 6 14 12 15 14 14 8 13 12 13 7 4 5 5 9 7 8
15 9 9 9 13 18 22 26 29 29 21 7 6 5 5 3 5 5 3 4 8 7 4 14 12 8 3 6 7 7 7 5 14 10 8 9 7 2 6 8 4 6 5 7 6 9 8
16 12 9 11 11 17 21 25 28 27 16 21 8 8 6 6 11 5 2 5 5 7 3 3 11 4 12 8 6 13 11 2 5 11 7 6 2 4 12 7 8 6 14 12 7 8 11
15 14 10 12 11 14 19 24 27 27 21 14 13 12 6 16 10 7 3 9 10 9 12 11 10 7 11 12 4 4 8 15 13 9 5 7 8 6 1 7 6 10 10 3 7 4 14
15 14 12 10 11 11 14 20 24 27 28 28 24 10 6 5 5 2 4 7 6 5 11 9 13 8 7 27 28 25 29 27 25 20 9 9 8 5 3 7 3 8 7 10 14 4 2
19 17 18 12 11 10 13 16 19 21 22 23 25 8 6 2 13 11 22 10 9 18 18 26 19 12 12 8 9 11 12 10 9 13 12 9 9 7 7 3 6 5 5 3 5 4 3
25 20 17 17 12 10 11 12 15 15 16 13 19 14 7 3 11 13 8 17 6 9 11 8 19 19 8 11 8 6 6 8 3 7 14 11 13 9 4 7 12 10 6 4 10 5 11
23 22 20 18 15 13 12 12 11 10 12 11 15 15 4 4 12 20 14 4 8 4 4 5 9 12 13 6 6 4 4 3 5 12 6 7 8 8 4 4 12 11 9 10 8 12 13
35 23 18 19 17 14 16 15 10 7 5 4 8 14 12 6 6 11 14 13 12 11 4 4 6 12 9 9 5 4 4 2 5 6 7 9 10 5 6 4 5 20 10 10 15 20 23
46 37 26 20 17 15 15 17 14 8 5 3 4 15 14 4 2 5 8 8 11 18 11 9 8 4 5 8 2 4 1 4 4 1 4 1 11 10 15 11 7 34 4 18 35 31 40
Wind_Direction_500mb
238 245 249 248 250 250 260 265 270 272 268 264 264 263 265 267 273 276 280 290 301 308 313 317 320 328 338 323 313 328 327 3 137 149 124 99 327 285 260 265 283 192 287 160 189 189 201
226 237 247 248 248 250 255 267 274 276 278 277 269 266 265 266 267 272 276 287 297 303 308 312 312 325 329 301 334 328 28 91 106 107 107 23 325 318 284 269 162 296 6 117 177 187 185
197 213 235 250 250 249 260 270 276 277 277 278 270 264 263 264 263 266 273 285 290 293 301 299 311 321 312 308 312 320 35 92 121 25 324 339 322 304 311 298 345 297 177 32 75 142 107
134 143 190 230 253 257 267 276 276 275 270 272 266 262 257 255 258 263 272 282 280 282 291 297 307 316 269 290 300 293 249 190 259 292 342 332 333 292 258 321 354 38 52 46 285 162 160
113 105 98 107 285 297 296 292 297 300 289 276 267 256 250 251 256 264 268 272 272 284 290 294 301 309 288 296 119 155 270 205 348 305 312 305 302 268 357 27 16 14 353 21 53 215 118
104 94 81 59 20 338 325 319 319 319 309 286 265 255 251 251 254 254 267 267 277 279 281 282 274 302 316 339 341 282 289 304 303 322 344 12 257 33 27 53 322 285 360 353 340 39 67
106 100 93 72 49 24 358 349 340 331 319 294 269 251 244 241 241 252 251 279 292 276 263 241 291 283 297 331 326 197 258 309 271 315 8 360 43 302 276 144 212 225 150 117 248 1 70
100 90 80 66 44 31 14 3 358 348 335 310 280 257 235 233 233 238 232 239 69 22 310 288 284 272 281 294 292 226 254 212 123 39 339 10 312 278 149 310 105 105 53 359 18 75 87
101 86 72 56 33 24 17 8 3 357 346 323 274 241 218 224 225 239 244 305 293 328 309 289 266 283 301 359 216 281 190 95 88 30 17 155 257 312 99 110 155 110 99 187 123 129 82
98 84 66 49 29 16 15 10 6 359 352 333 277 238 209 216 230 239 126 59 358 269 58 285 242 283 232 206 273 245 231 88 36 40 341 267 296 48 86 162 109 53 328 324 157 120 148
116 78 49 30 17 14 11 10 5 357 348 339 278 234 206 209 209 145 96 356 35 144 108 236 214 265 226 171 86 194 203 179 151 151 72 267 347 37 68 294 140 128 112 90 58 86 93
156 95 24 347 2 13 4 7 3 353 343 337 286 231 216 209 220 137 358 37 119 42 240 273 184 203 79 174 313 133 156 132 94 82 357 294 338 41 174 66 42 80 83 50 52 75 42
171 122 8 315 357 9 360 2 2 350 341 335 300 233 220 204 197 69 101 140 43 132 316 215 168 150 136 145 290 154 130 64 133 68 352 341 22 332 26 43 18 61 56 6 17 21 194
180 217 323 308 341 2 358 359 1 351 342 334 305 238 218 183 151 15 111 58 183 248 251 305 123 89 157 155 266 139 77 107 75 93 96 65 4 360 333 47 139 33 101 138 147 153 245
215 218 302 301 332 354 356 357 3 355 343 336 304 237 217 184 203 235 135 90 215 224 268 185 61 123 277 219 241 106 184 167 199 179 140 124 271 308 336 17 19 33 46 188 102 11 65
207 232 279 288 328 350 350 354 360 358 347 334 286 235 199 174 176 134 86 226 245 226 302 108 124 140 189 249 172 148 185 198 146 186 101 189 111 60 283 294 38 95 150 32 14 113 112
196 236 272 292 327 350 341 354 351 1 356 348 177 219 177 182 151 133 153 236 269 296 312 104 154 109 207 219 198 158 196 64 87 100 61 130 104 291 2 19 292 15 27 58 113 108 147
206 242 273 304 330 342 343 348 346 360 6 333 196 33 168 178 97 41 176 216 308 311 317 52 100 147 128 175 101 123 153 100 25 155 63 350 117 95 128 240 7 56 148 126 114 288 52
223 234 274 306 320 332 344 348 352 350 352 9 196 292 176 180 143 284 285 273 256 290 308 86 45 11 16 84 102 93 70 1 100 98 146 179 22 43 346 354 5 25 84 109 108 97 184
228 238 260 298 318 331 344 350 351 351 355 24 161 69 121 192 181 152 218 295 321 322 22 78 49 56 46 32 33 128 100 22 26 79 104 118 117 152 183 209 150 236 164 118 101 108 173
232 232 266 302 316 338 345 353 355 351 360 10 42 69 67 194 260 201 145 294 303 318 62 40 50 38 125 34 56 75 41 50 34 52 52 89 116 152 251 250 124 44 307 156 146 156 135
221 243 270 294 315 333 350 357 358 360 10 36 55 48 42 38 303 208 105 269 261 282 112 2 101 315 64 105 206 178 139 133 149 23 72 38 108 123 16 322 24 54 8 105 96 116 73
225 232 244 280 318 329 347 358 8 18 24 50 44 43 48 14 353 103 229 267 292 329 49 68 154 110 39 344 351 43 52 124 147 113 93 75 113 70 337 350 87 22 334 38 99 83 133
237 239 250 248 300 326 347 359 13 22 32 39 33 48 49 341 25 77 317 254 278 310 129 63 119 96 13 93 89 81 72 78 69 47 93 114 90 73 171 26 355 263 39 89 108 32 279
236 243 256 265 276 313 328 349 15 20 26 35 39 45 67 87 325 334 360 5 68 81 75 80 59 67 111 72 56 36 357 23 44 32 33 93 110 75 114 115 296 157 229 230 117 270 205
236 244 252 261 260 280 309 330 1 10 22 28 41 40 65 140 341 334 354 17 44 3 23 38 61 57 104 71 69 114 186 235 327 41 68 66 73 107 99 132 205 238 184 93 104 293 206
236 242 249 263 263 267 290 303 336 1 21 30 32 31 43 101 32 31 32 5 7 36 122 14 6 41 34 57 77 122 243 224 179 153 175 35 21 117 114 163 283 238 185 117 94 240 163
228 238 245 253 263 256 267 286 309 335 17 33 15 14 18 16 46 49 35 29 45 24 107 20 73 22 45 64 111 214 143 263 74 172 177 155 130 157 89 110 262 171 121 160 174 159 178
226 231 240 248 253 259 255 270 292 303 320 358 337 1 359 335 238 327 1 29 47 28 9 46 107 102 111 95 102 122 128 62 160 216 33 76 174 182 174 210 256 177 188 177 168 166 176
Wind_Speed_850mb
22 23 24 24 25 23 24 24 25 26 27 28 29 30 30 28 27 30 29 25 23 22 23 24 23 27 32 23 14 20 17 5 10 15 16 12 4 6 5 9 10 13 13 26 25 53 57
16 17 19 20 22 21 21 24 26 26 29 28 28 30 28 28 29 31 28 24 22 19 19 22 23 28 32 11 13 16 8 12 23 19 12 2 7 19 18 13 2 11 19 9 35 42 31
10 10 11 14 17 17 19 20 23 26 29 30 30 29 27 26 30 29 26 21 20 18 17 21 23 29 30 8 10 11 4 9 4 5 6 11 16 14 19 12 20 5 9 12 7 16 5
12 7 5 7 11 12 13 18 21 22 24 30 29 28 27 26 28 25 23 19 19 17 16 22 23 31 15 6 9 11 4 5 5 3 9 15 19 27 10 20 12 11 12 11 8 15 9
18 13 7 1 4 8 9 13 16 20 19 24 25 24 23 25 22 21 18 19 18 16 17 20 22 19 15 7 5 1 5 1 7 9 15 24 25 7 7 7 15 15 6 9 4 15 11
22 18 13 7 4 5 8 11 13 15 19 20 20 21 20 19 18 19 14 18 15 14 16 19 24 14 4 16 17 9 5 9 13 22 13 3 2 6 6 14 5 15 5 5 7 5 18
24 20 16 10 7 6 7 9 12 13 15 18 15 15 17 17 15 17 14 12 9 7 13 16 15 21 20 23 9 2 5 5 7 6 6 9 12 8 16 3 14 7 7 4 3 10 19
23 20 17 14 11 11 12 14 14 15 15 14 13 12 14 14 17 17 11 4 6 8 17 13 21 37 35 30 11 9 5 6 4 5 8 15 10 17 1 9 6 6 7 9 11 22 18
23 19 16 15 13 14 15 17 19 18 17 12 10 12 13 19 15 17 14 6 8 28 5 13 17 23 16 6 6 9 11 5 8 8 8 7 21 11 3 9 9 3 10 2 11 9 5
21 19 15 14 12 14 16 19 21 22 20 13 9 12 13 11 11 16 5 10 9 4 9 10 5 6 7 6 6 16 13 6 8 4 9 9 17 4 13 7 8 12 13 6 7 10 5
11 15 14 13 10 14 18 21 23 23 20 13 10 12 13 21 8 15 3 17 6 4 7 7 9 4 6 10 1 10 17 10 10 3 10 14 10 6 17 2 6 7 3 27 10 12 13
9 4 12 13 10 15 20 24 26 26 20 14 9 10 16 24 17 6 12 4 10 11 3 4 14 3 4 2 4 9 9 9 4 10 8 8 3 10 4 5 8 5 9 16 9 5 11
8 4 7 15 11 15 22 26 28 28 22 16 9 9 21 22 11 9 6 16 10 5 8 6 10 5 4 4 4 6 6 5 7 8 9 13 11 13 7 12 16 17 15 7 10 11 6
6 3 4 14 14 18 23 28 31 31 25 15 8 11 19 26 12 15 12 10 4 7 11 5 7 5 8 8 6 5 7 1 5 11 5 9 14 15 23 5 9 9 11 9 4 4 4
9 6 5 13 14 19 25 31 32 32 27 12 7 11 18 27 13 2 4 6 12 11 8 5 9 7 3 5 3 4 10 10 12 14 11 10 3 7 3 10 4 2 13 5 12 7 8
13 8 4 10 14 20 27 33 34 33 27 9 4 8 19 19 11 9 7 8 8 11 13 5 7 6 8 4 7 9 11 6 8 7 6 12 6 1 9 2 23 14 8 7 7 5 2
12 9 5 9 14 16 26 34 36 32 27 7 4 3 27 22 12 5 6 11 11 25 20 6 8 6 5 5 14 7 5 4 1 4 9 10 8 8 5 12 2 10 6 10 9 7 9
10 9 6 9 15 18 26 33 36 36 31 3 7 1 31 26 7 3 5 8 14 14 11 10 7 5 3 6 6 4 8 3 6 8 8 4 9 5 3 6 2 1 8 8 9 4 5
8 9 8 11 15 19 22 32 37 36 29 10 2 1 29 34 6 4 9 10 8 6 7 5 6 7 6 5 9 6 7 10 8 8 11 10 5 6 16 13 7 1 4 4 12 7 5
11 8 9 10 15 19 24 30 33 33 29 8 2 4 8 19 4 12 1 9 11 20 3 10 8 15 12 12 13 8 6 14 12 15 14 14 8 13 12 13 7 4 5 5 9 7 8
15 9 9 9 13 18 22 26 29 29 21 7 6 5 5 3 5 5 3 4 8 7 4 14 12 8 3 6 7 7 7 5 14 10 8 9 7 2 6 8 4 6 5 7 6 9 8
16 12 9 11 11 17 21 25 28 27 16 21 8 8 6 6 11 5 2 5 5 7 3 3 11 4 12 8 6 13 11 2 5 11 7 6 2 4 12 7 8 6 14 12 7 8 11
15 14 10 12 11 14 19 24 27 27 21 14 13 12 6 16 10 7 3 9 10 9 12 11 10 7 11 12 4 4 8 15 13 9 5 7 8 6 1 7 6 10 10 3 7 4 14
15 14 12 10 11 11 14 20 24 27 28 28 24 10 6 5 5 2 4 7 6 5 11 9 13 8 7 27 28 25 29 27 25 20 9 9 8 5 3 7 3 8 7 10 14 4 2
19 17 18 12 11 10 13 16 19 21 22 23 25 8 6 2 13 11 22 10 9 18 18 26 19 12 12 8 9 11 12 10 9 13 12 9 9 7 7 3 6 5 5 3 5 4 3
25 20 17 17 12 10 11 12 15 15 16 13 19 14 7 3 11 13 8 17 6 9 11 8 19 19 8 11 8 6 6 8 3 7 14 11 13 9 4 7 12 10 6 4 10 5 11
23 22 20 18 15 13 12 12 11 10 12 11 15 15 4 4 12 20 14 4 8 4 4 5 9 12 13 6 6 4 4 3 5 12 6 7 8 8 4 4 12 11 9 10 8 12 13
35 23 18 19 17 14 16 15 10 7 5 4 8 14 12 6 6 11 14 13 12 11 4 4 6 12 9 9 5 4 4 2 5 6 7 9 10 5 6 4 5 20 10 10 15 20 23
46 37 26 20 17 15 15 17 14 8 5 3 4 15 14 4 2 5 8 8 11 18 11 9 8 4 5 8 2 4 1 4 4 1 4 1 11 10 15 11 7 34 4 18 35 31 40
Wind_Direction_850mb
238 245 249 248 250 250 260 265 270 272 268 264 264 263 265 267 273 276 280 290 301 308 313 317 320 328 338 323 313 328 327 3 137 149 124 99 327 285 260 265 283 192 287 160 189 189 201
226 237 247 248 248 250 255 267 274 276 278 277 269 266 265 266 267 272 276 287 297 303 308 312 312 325 329 301 334 328 28 91 106 107 107 23 325 318 284 269 162 296 6 117 177 187 185
197 213 235 250 250 249 260 270 276 277 277 278 270 264 263 264 263 266 273 285 290 293 301 299 311 321 312 308 312 320 35 92 121 25 324 339 322 304 311 298 345 297 177 32 75 142 107
134 143 190 230 253 257 267 276 276 275 270 272 266 262 257 255 258 263 272 282 280 282 291 297 307 316 269 290 300 293 249 190 259 292 342 332 333 292 258 321 354 38 52 46 285 162 160
113 105 98 107 285 297 296 292 297 300 289 276 267 256 250 251 256 264 268 272 272 284 290 294 301 309 288 296 119 155 270 205 348 305 312 305 302 268 357 27 16 14 353 21 53 215 118
104 94 81 59 20 338 325 319 319 319 309 286 265 255 251 251 254 254 267 267 277 279 281 282 274 302 316 339 341 282 289 304 303 322 344 12 257 33 27 53 322 285 360 353 340 39 67
106 100 93 72 49 24 358 349 340 331 319 294 269 251 244 241 241 252 251 279 292 276 263 241 291 283 297 331 326 197 258 309 271 315 8 360 43 302 276 144 212 225 150 117 248 1 70
100 90 80 66 44 31 14 3 358 348 335 310 280 257 235 233 233 238 232 239 69 22 310 288 284 272 281 294 292 226 254 212 123 39 339 10 312 278 149 310 105 105 53 359 18 75 87
101 86 72 56 33 24 17 8 3 357 346 323 274 241 218 224 225 239 244 305 293 328 309 289 266 283 301 359 216 281 190 95 88 30 17 155 257 312 99 110 155 110 99 187 123 129 82
98 84 66 49 29 16 15 10 6 359 352 333 277 238 209 216 230 239 126 59 358 269 58 285 242 283 232 206 273 245 231 88 36 40 341 267 296 48 86 162 109 53 328 324 157 120 148
116 78 49 30 17 14 11 10 5 357 348 339 278 234 206 209 209 145 96 356 35 144 108 236 214 265 226 171 86 194 203 179 151 151 72 267 347 37 68 294 140 128 112 90 58 86 93
156 95 24 347 2 13 4 7 3 353 343 337 286 231 216 209 220 137 358 37 119 42 240 273 184 203 79 174 313 133 156 132 94 82 357 294 338 41 174 66 42 80 83 50 52 75 42
171 122 8 315 357 9 360 2 2 350 341 335 300 233 220 204 197 69 101 140 43 132 316 215 168 150 136 145 290 154 130 64 133 68 352 341 22 332 26 43 18 61 56 6 17 21 194
180 217 323 308 341 2 358 359 1 351 342 334 305 238 218 183 151 15 111 58 183 248 251 305 123 89 157 155 266 139 77 107 75 93 96 65 4 360 333 47 139 33 101 138 147 153 245
215 218 302 301 332 354 356 357 3 355 343 336 304 237 217 184 203 235 135 90 215 224 268 185 61 123 277 219 241 106 184 167 199 179 140 124 271 308 336 17 19 33 46 188 102 11 65
207 232 279 288 328 350 350 354 360 358 347 334 286 235 199 174 176 134 86 226 245 226 302 108 124 140 189 249 172 148 185 198 146 186 101 189 111 60 283 294 38 95 150 32 14 113 112
196 236 272 292 327 350 341 354 351 1 356 348 177 219 177 182 151 133 153 236 269 296 312 104 154 109 207 219 198 158 196 64 87 100 61 130 104 291 2 19 292 15 27 58 113 108 147
206 242 273 304 330 342 343 348 346 360 6 333 196 33 168 178 97 41 176 216 308 311 317 52 100 147 128 175 101 123 153 100 25 155 63 350 117 95 128 240 7 56 148 126 114 288 52
223 234 274 306 320 332 344 348 352 350 352 9 196 292 176 180 143 284 285 273 256 290 308 86 45 11 16 84 102 93 70 1 100 98 146 179 22 43 346 354 5 25 84 109 108 97 184
228 238 260 298 318 331 344 350 351 351 355 24 161 69 121 192 181 152 218 295 321 322 22 78 49 56 46 32 33 128 100 22 26 79 104 118 117 152 183 209 150 236 164 118 101 108 173
232 232 266 302 316 338 345 353 355 351 360 10 42 69 67 194 260 201 145 294 303 318 62 40 50 38 125 34 56 75 41 50 34 52 52 89 116 152 251 250 124 44 307 156 146 156 135
221 243 270 294 315 333 350 357 358 360 10 36 55 48 42 38 303 208 105 269 261 282 112 2 101 315 64 105 206 178 139 133 149 23 72 38 108 123 16 322 24 54 8 105 96 116 73
225 232 244 280 318 329 347 358 8 18 24 50 44 43 48 14 353 103 229 267 292 329 49 68 154 110 39 344 351 43 52 124 147 113 93 75 113 70 337 350 87 22 334 38 99 83 133
237 239 250 248 300 326 347 359 13 22 32 39 33 48 49 341 25 77 317 254 278 310 129 63 119 96 13 93 89 81 72 78 69 47 93 114 90 73 171 26 355 263 39 89 108 32 279
236 243 256 265 276 313 328 349 15 20 26 35 39 45 67 87 325 334 360 5 68 81 75 80 59 67 111 72 56 36 357 23 44 32 33 93 110 75 114 115 296 157 229 230 117 270 205
236 244 252 261 260 280 309 330 1 10 22 28 41 40 65 140 341 334 354 17 44 3 23 38 61 57 104 71 69 114 186 235 327 41 68 66 73 107 99 132 205 238 184 93 104 293 206
236 242 249 263 263 267 290 303 336 1 21 30 32 31 43 101 32 31 32 5 7 36 122 14 6 41 34 57 77 122 243 224 179 153 175 35 21 117 114 163 283 238 185 117 94 240 163
228 238 245 253 263 256 267 286 309 335 17 33 15 14 18 16 46 49 35 29 45 24 107 20 73 22 45 64 111 214 143 263 74 172 177 155 130 157 89 110 262 171 121 160 174 159 178
226 231 240 248 253 259 255 270 292 303 320 358 337 1 359 335 238 327 1 29 47 28 9 46 107 102 111 95 102 122 128 62 160 216 33 76 174 182 174 210 256 177 188 177 168 166 176